Content
SEND FEEDBACK

Daily
Averages
Monthly
Summary
Philippines

CAVITE, PHILIPPINES


Home > Asia > Philippines
Elevation: 13 feet     Latitude: 14 30N     Longitude: 120 55E

WEATHER
 
SELECT A DAY
Number of Records: 170,466;   Date Range: 7/1/96 - 4/21/14
 
SHARE

PRINT THIS DATA

[ ← Previous Day ]
WEATHER ALMANAC - MARCH 23, 2013
[ Next Day → ]
[ °C ]   °F
Weather ElementAverageHighLow
Temperature84.8 °F93.2 °F (2:00 pm)78.8 °F (6:00 am)
Dewpoint75.3 °F77 °F (6:00 am)73.4 °F (2:00 am)
Humidity72.1 %94 % (6:00 am)47 % (2:00 pm)
Barometer28.86 in29.88 in (11:00 am) (7:00 pm)
Wind Speed7.2 mph13.8 mph (1:00 pm)
Weather ElementAverage
Visibility6.1 mi
Wind DirectionESE (105.8 °)

Weather ElementTotal
Precipitation---
Cooling Degree Days21 (Base 65)
Growing Degree Days36 (Base 50)
Averaged from 31 records on March 23, 2013
WEATHER CONDITIONS BREAKOUT
WIND DIRECTION BREAKOUT
WEATHER BY HOUR - MARCH 23, 2013
[ °C ]   °F
Local TimeTemperatureDewpointHumidityBarometerVisibilityWind DirectionWind SpeedGust SpeedPrecipitationEventsConditions
1:00 AM80.6 °F75.2 °F84 %29.83 in6.2 miEast (90°)4.6 mphScattered Clouds
2:00 AM80.0 °F74.0 °F77 %29.83 in6.0 miEast (100°)2.2 mphHaze
2:00 AM80.6 °F73.4 °F79 %29.83 in6.2 miEast (100°)2.3 mphScattered Clouds
3:00 AM80.6 °F75.2 °F84 %29.80 in6.2 miNorth (350°)2.3 mphScattered Clouds
4:00 AM80.6 °F75.2 °F84 %29.80 in6.2 miCalmScattered Clouds
5:00 AM80.0 °F76.0 °F82 %29.81 in6.0 miSE (140°)2.2 mphHaze
5:00 AM80.6 °F75.2 °F84 %29.80 in6.2 miVariable2.3 mphMostly Cloudy
6:00 AM78.8 °F77.0 °F94 %29.83 in5.6 miVariable1.2 mphRainLight Rain Showers
7:00 AM78.8 °F77.0 °F94 %29.83 in5.6 miEast (100°)3.5 mphPartly Cloudy
8:00 AM83.0 °F76.0 °F73 %29.87 in6.0 miENE (60°)4.5 mphHaze
8:00 AM84.2 °F75.2 °F74 %29.86 in6.2 miENE (60°)5.8 mphPartly Cloudy
9:00 AM84.2 °F73.4 °F70 %29.86 in6.2 miEast (100°)8.1 mphScattered Clouds
10:00 AM87.8 °F75.2 °F66 %29.86 in6.2 miEast (90°)8.1 mphPartly Cloudy
11:00 AM90.0 °F76.0 °F54 %29.88 in6.0 miESE (120°)8.9 mphScattered Clouds
11:00 AM89.6 °F75.2 °F62 %29.86 in6.2 miESE (120°)10.4 mphPartly Cloudy
12:00 PM89.6 °F77.0 °F66 %6.2 miESE (110°)10.4 mphScattered Clouds
1:00 PM91.4 °F75.2 °F59 %29.80 in6.2 miEast (80°)13.8 mphScattered Clouds
2:00 PM92.0 °F74.0 °F47 %29.79 in6.0 miESE (110°)11.2 mphPartly Cloudy
2:00 PM93.2 °F75.2 °F56 %29.77 in6.2 miESE (120°)11.5 mphScattered Clouds
3:00 PM89.6 °F75.2 °F62 %29.77 in6.2 miSE (140°)11.5 mphScattered Clouds
4:00 PM89.6 °F77.0 °F66 %29.77 in6.2 miESE (120°)13.8 mphScattered Clouds
5:00 PM88.0 °F75.0 °F57 %29.78 in6.0 miESE (120°)11.2 mphPartly Cloudy
5:00 PM87.8 °F75.2 °F66 %29.77 in6.2 miESE (120°)11.5 mphScattered Clouds
6:00 PM86.0 °F75.2 °F70 %29.80 in6.2 miESE (120°)9.2 mphScattered Clouds
7:00 PM86.0 °F75.2 °F70 %29.83 in6.2 miESE (110°)11.5 mphScattered Clouds
8:00 PM84.0 °F75.0 °F68 %29.84 in6.0 miESE (110°)6.7 mphScattered Clouds
8:00 PM84.2 °F75.2 °F74 %29.83 in6.2 miESE (110°)6.9 mphPartly Cloudy
9:00 PM82.4 °F75.2 °F79 %29.86 in6.2 miESE (110°)6.9 mphPartly Cloudy
10:00 PM82.4 °F75.2 °F79 %29.86 in6.2 miESE (110°)6.9 mphPartly Cloudy
11:00 PM82.0 °F76.0 °F76 %29.87 in6.0 miSE (130°)6.7 mphScattered Clouds
11:00 PM82.4 °F75.2 °F79 %29.86 in6.2 miSE (130°)6.9 mphPartly Cloudy
Hourly data recorded from RPLL, located 6.44 miles away from Cavite, Philippines







STORIES FROM OUR PARTNERS